Stations météo

réclame
Mon MeteoGroup
Svenska Hogarna A, Suède (2498): Température de l'air & dewpoint: 17.10.2018 01:00:00 - 23.10.2018 01:00:00 (CEST)Svenska Hogarna A, Suède (2498): Vitesse du vent & gusts: 17.10.2018 01:00:00 - 23.10.2018 01:00:00 (CEST)Svenska Hogarna A, Suède (2498): Direction du vent: 17.10.2018 01:00:00 - 23.10.2018 01:00:00 (CEST)Svenska Hogarna A, Suède (2498): reduced air pressure: 17.10.2018 01:00:00 - 23.10.2018 01:00:00 (CEST)Svenska Hogarna A, Suède (2498): visibility: 17.10.2018 01:00:00 - 23.10.2018 01:00:00 (CEST)Svenska Hogarna A, Suède (2498): Quantités de précipitations: 17.10.2018 01:00:00 - 23.10.2018 01:00:00 (CEST)
Date & Time tt [°C] td [°C] ff [km/h] ff [knt] fx [km/h] fx [knt] dd ppp [hPa] vv [km] rr [mm]
23.10.2018 01:00:00 7,8 3,8 34 18 47 26 WSW 1005,2 41 0,0
23.10.2018 00:00:00 7,8 3,5 32 17 44 24 WSW 1006,8 47 0,0
22.10.2018 23:00:00 8,0 3,3 33 18 43 23 WSW 1008,1 50 0,0
22.10.2018 22:00:00 8,4 2,4 32 17 45 24 WSW 1009,1 50 0,0
22.10.2018 21:00:00 8,6 2,0 34 18 50 27 W 1009,5 45 0,0
22.10.2018 20:00:00 8,8 1,7 38 20 48 26 W 1010,4 40 0,0
22.10.2018 19:00:00 8,8 2,6 33 18 53 29 W 1010,6 50 0,0
22.10.2018 18:00:00 9,1 2,2 40 22 54 29 W 1011,0 46 0,0
22.10.2018 17:00:00 9,3 2,4 34 19 53 28 W 1010,8 50 0,0
22.10.2018 16:00:00 9,7 2,3 37 20 56 30 W 1010,0 50 0,0
22.10.2018 15:00:00 10,0 1,9 41 22 53 29 W 1009,9 44 0,0
22.10.2018 14:00:00 10,4 2,7 37 20 51 28 W 1009,8 42 0,0
22.10.2018 13:00:00 10,5 5,3 31 17 44 24 W 1009,9 50 0,0
22.10.2018 12:00:00 10,3 4,2 33 18 48 26 W 1010,0 43 0,0
22.10.2018 11:00:00 9,8 4,4 37 20 48 26 W 1009,8 41 0,0
22.10.2018 10:00:00 9,5 5,5 37 20 49 26 W 1010,1 46 0,0
22.10.2018 09:00:00 9,0 7,4 19 10 25 13 WSW 1010,3 40 0,0
22.10.2018 08:00:00 8,1 6,7 11 6 18 10 W 1009,9 45 0,0
22.10.2018 07:00:00 8,0 6,5 16 9 29 16 WNW 1009,7 50 0,0
22.10.2018 06:00:00 8,2 6,7 20 11 44 24 NW 1009,3 34 0,0
22.10.2018 05:00:00 10,2 8,5 34 18 73 39 W 1008,4 50 0,9
22.10.2018 04:00:00 9,9 9,0 44 24 69 37 SW 1008,0 16 0,0
22.10.2018 03:00:00 10,5 9,4 55 30 74 40 SW 1007,3 20 0,0
22.10.2018 02:00:00 10,6 9,4 55 30 74 40 SW 1007,6 28 0,0
22.10.2018 01:00:00 10,5 9,3 53 29 72 39 SSW 1008,3 29 0,0
22.10.2018 00:00:00 10,5 9,3 52 28 68 37 SSW 1009,1 21 0,0
21.10.2018 23:00:00 10,4 9,2 47 26 66 36 SSW 1010,2 27 0,0
21.10.2018 22:00:00 10,5 9,1 47 26 69 38 SSW 1011,2 26 0,0
21.10.2018 21:00:00 10,5 9,1 44 24 61 33 SSW 1012,2 26 0,0
21.10.2018 20:00:00 10,3 8,7 45 24 59 32 SSW 1013,2 25 0,0
21.10.2018 19:00:00 10,1 8,5 45 24 64 34 SSW 1014,2 23 0,0
21.10.2018 18:00:00 9,7 8,3 46 25 63 34 SSW 1014,4 22 0,0
21.10.2018 17:00:00 9,5 7,9 42 23 54 29 SSW 1015,6 26 0,0
21.10.2018 16:00:00 9,3 7,7 41 22 56 30 SSW 1016,0 24 0,0
21.10.2018 15:00:00 9,0 7,1 44 24 59 32 SSW 1016,6 34 0,0
21.10.2018 14:00:00 9,0 7,0 39 21 53 28 SSW 1017,7 38 0,0
21.10.2018 13:00:00 9,0 7,1 38 20 53 28 SSW 1018,3 34 0,0
21.10.2018 12:00:00 9,7 7,5 40 22 50 27 SSW 1018,5 38 0,0
21.10.2018 11:00:00 9,7 8,0 35 19 45 24 SSW 1019,6 33 0,0
21.10.2018 10:00:00 9,1 7,4 34 18 47 26 SSW 1020,1 39 0,0
21.10.2018 09:00:00 8,6 6,9 31 17 44 24 SSW 1020,3 38 0,0
21.10.2018 08:00:00 8,1 6,4 34 18 41 22 SW 1020,6 42 0,0
21.10.2018 07:00:00 7,4 5,9 27 15 37 20 SSW 1020,9 31 0,0
21.10.2018 06:00:00 7,4 5,9 29 15 35 19 SW 1021,4 43 0,0
21.10.2018 05:00:00 7,2 6,6 17 9 27 14 SSW 1021,6 23 0,0
21.10.2018 04:00:00 7,7 6,8 19 10 23 12 SW 1022,1 28 0,0
21.10.2018 03:00:00 7,9 6,7 18 10 22 12 SW 1022,5 40 0,0
21.10.2018 02:00:00 7,9 6,4 15 8 19 10 SSW 1022,6 47 0,0
21.10.2018 01:00:00 7,8 6,6 14 7 18 10 SW 1022,6 45 0,0
21.10.2018 00:00:00 7,8 6,3 13 7 16 9 SW 1022,7 49 0,0
20.10.2018 23:00:00 8,0 6,3 16 9 19 10 WSW 1022,8 50 0,0
20.10.2018 22:00:00 7,8 6,3 13 7 16 9 SW 1022,9 50 0,0
20.10.2018 21:00:00 7,8 6,3 13 7 16 9 SW 1022,9 40 0,0
20.10.2018 20:00:00 7,7 6,6 11 6 13 7 SW 1022,8 32 0,0
20.10.2018 19:00:00 8,2 6,8 6 3 9 5 WSW 1022,4 50 0,0
20.10.2018 18:00:00 8,4 6,2 3 2 8 4 W 1022,2 45 0,0
20.10.2018 17:00:00 9,2 6,3 5 3 8 5 WSW 1021,9 49 0,0
20.10.2018 16:00:00 9,2 6,5 7 4 11 6 W 1021,7 35 0,0
20.10.2018 15:00:00 9,1 6,5 4 2 7 4 WSW 1021,6 42 0,0
20.10.2018 14:00:00 9,1 6,5 3 1 7 4 S 1021,7 49 0,0
20.10.2018 13:00:00 9,2 6,3 5 3 9 5 SSW 1021,4 44 0,0
20.10.2018 12:00:00 9,0 6,4 6 3 8 4 E 1021,3 47 0,0
20.10.2018 11:00:00 8,8 6,4 3 2 11 6 NW 1021,1 50 0,0
20.10.2018 10:00:00 8,6 6,4 9 5 14 8 W 1020,7 37 0,0
20.10.2018 09:00:00 8,4 5,9 8 4 12 7 WSW 1020,3 50 0,0
20.10.2018 08:00:00 8,1 6,6 10 5 17 9 SW 1020,2 40 0,0
20.10.2018 07:00:00 8,0 6,1 13 7 15 8 SW 1020,0 49 0,0
20.10.2018 06:00:00 8,2 5,8 8 4 9 5 SSW 1019,7 50 0,0
20.10.2018 05:00:00 8,3 5,2 3 1 5 3 S 1019,9 49 0,0
20.10.2018 04:00:00 8,1 5,0 6 3 12 7 WSW 1020,3 47 0,0
20.10.2018 03:00:00 7,7 5,3 9 5 13 7 W 1020,6 29 0,0
20.10.2018 02:00:00 8,0 5,5 11 6 14 8 WSW 1020,9 50 0,0
20.10.2018 01:00:00 8,2 5,7 9 5 16 8 SW 1020,9 40 0,0
20.10.2018 00:00:00 8,3 5,4 11 6 14 7 WSW 1020,9 48 0,0
19.10.2018 23:00:00 8,2 5,5 11 6 16 9 WSW 1021,0 46 0,0
19.10.2018 22:00:00 8,2 5,1 14 8 18 10 WSW 1021,4 50 0,0
19.10.2018 21:00:00 8,2 6,0 14 8 19 10 WSW 1021,7 50 0,0
19.10.2018 20:00:00 8,3 6,4 15 8 19 10 WSW 1021,4 50 0,0
19.10.2018 19:00:00 8,3 5,1 14 7 17 9 SW 1021,4 43 0,0
19.10.2018 18:00:00 8,2 5,3 14 8 16 9 SW 1021,6 48 0,0
19.10.2018 17:00:00 8,5 5,2 11 6 17 9 SW 1021,5 46 0,0
19.10.2018 16:00:00 9,4 5,6 13 7 17 9 WSW 1021,9 50 0,0
19.10.2018 15:00:00 9,7 3,7 12 6 16 9 WSW 1022,1 47 0,0
19.10.2018 14:00:00 9,8 4,6 13 7 19 10 W 1022,4 49 0,0
19.10.2018 13:00:00 9,1 4,3 15 8 23 12 W 1022,5 50 0,0
19.10.2018 12:00:00 8,5 4,1 19 10 22 12 W 1022,3 43 0,0
19.10.2018 11:00:00 8,5 4,9 17 9 20 11 W 1022,3 43 0,0
19.10.2018 10:00:00 7,1 4,4 14 8 20 11 W 1022,1 47 0,0
19.10.2018 09:00:00 7,5 4,6 19 10 22 12 WNW 1022,0 40 0,0
19.10.2018 08:00:00 7,0 4,3 15 8 22 12 W 1021,6 47 0,0
19.10.2018 07:00:00 7,1 4,4 21 12 29 15 WNW 1021,5 50 0,0
19.10.2018 06:00:00 7,4 5,0 21 11 26 14 W 1021,3 50 0,0
19.10.2018 05:00:00 7,8 5,6 16 8 19 10 W 1021,0 50 0,0
19.10.2018 04:00:00 7,9 6,2 15 8 20 11 W 1021,1 50 0,0
19.10.2018 03:00:00 8,3 6,9 15 8 21 12 W 1021,2 49 0,0
19.10.2018 02:00:00 8,2 7,0 15 8 22 12 W 1021,1 43 0,0
19.10.2018 01:00:00 8,4 7,0 18 10 22 12 W 1021,3 49 0,0
19.10.2018 00:00:00 8,2 7,1 15 8 18 10 W 1020,9 50 0,0
18.10.2018 23:00:00 8,0 6,9 10 6 13 7 W 1020,3 14 0,0
18.10.2018 22:00:00 8,3 6,8 11 6 14 7 WNW 1020,2 37 0,0
18.10.2018 21:00:00 8,8 6,9 11 6 20 11 NW 1019,7 50 0,0
18.10.2018 20:00:00 8,9 7,3 13 7 24 13 NNW 1019,0 48 0,0
18.10.2018 19:00:00 9,0 7,4 16 9 33 18 NNW 1018,4 48 0,0
18.10.2018 18:00:00 9,1 8,0 21 11 36 19 NNW 1017,7 41 0,0
18.10.2018 17:00:00 9,6 8,0 22 12 33 18 NNW 1016,9 45 0,0
18.10.2018 16:00:00 11,3 8,2 22 12 38 21 WNW 1016,1 45 0,0
18.10.2018 15:00:00 11,5 9,2 17 9 23 13 W 1015,2 44 0,0
18.10.2018 14:00:00 11,5 9,9 17 9 24 13 WSW 1014,9 23 0,0
18.10.2018 13:00:00 10,8 10,2 18 10 28 15 WSW 1014,7 6 0,0
18.10.2018 12:00:00 10,8 10,3 24 13 29 15 WSW 1014,8 5 0,1
18.10.2018 11:00:00 10,4 9,9 23 12 28 15 SW 1014,7 4,0 0,3
18.10.2018 10:00:00 10,3 9,8 25 13 31 17 SW 1015,0 3,3 0,3
18.10.2018 09:00:00 9,9 9,4 22 12 27 14 SW 1014,8 3,1 0,1
18.10.2018 08:00:00 9,8 9,3 21 11 29 16 SW 1014,6 2,7 0,0
18.10.2018 07:00:00 10,0 9,5 24 13 31 17 SW 1014,6 3,1 0,1
18.10.2018 06:00:00 9,9 9,4 22 12 29 16 SSW 1014,7 2,9 0,0
18.10.2018 05:00:00 10,2 9,6 21 12 29 16 SSW 1014,7 3,0 0,0
18.10.2018 04:00:00 10,0 9,5 20 11 28 15 SW 1015,2 2,6 0,0
18.10.2018 03:00:00 9,9 9,4 24 13 29 16 SW 1015,6 1,9 0,0
18.10.2018 02:00:00 10,0 9,7 23 12 31 17 SSW 1015,8 1,5 0,0
18.10.2018 01:00:00 10,2 10,0 24 13 35 19 SSW 1016,2 1,8 0,0
18.10.2018 00:00:00 10,5 10,3 27 15 34 19 SSW 1016,4 1,9 0,0
17.10.2018 23:00:00 10,4 10,2 27 14 33 18 SSW 1016,8 2,0 0,0
17.10.2018 22:00:00 9,7 9,6 23 12 30 16 S 1017,0 6 0,0
17.10.2018 21:00:00 8,7 8,6 20 11 27 15 SSW 1017,4 1,5 0,0
17.10.2018 20:00:00 8,5 8,4 18 10 27 15 SSW 1017,7 0,5 0,0
17.10.2018 19:00:00 8,4 8,3 21 11 32 17 SSW 1017,7 0,4 0,0
17.10.2018 18:00:00 9,1 9,0 24 13 33 18 SW 1017,9 0,2 0,0
17.10.2018 17:00:00 10,0 9,8 22 12 30 16 SSW 1017,7 0,2 0,0
17.10.2018 16:00:00 10,4 10,1 21 11 29 15 SSW 1017,5 0,4 0,0
17.10.2018 15:00:00 10,3 10,0 20 11 27 14 SSW 1017,9 0,5 0,0
17.10.2018 14:00:00 9,9 9,3 19 10 25 14 SSW 1017,7 1,3 0,0
17.10.2018 13:00:00 9,9 9,0 18 10 26 14 SSW 1017,8 6 0,0
17.10.2018 12:00:00 10,5 9,4 19 10 25 14 SW 1017,8 7 0,0
17.10.2018 11:00:00 10,4 9,8 19 10 29 15 SSW 1017,9 4,7 0,0
17.10.2018 10:00:00 10,5 10,2 22 12 29 16 SSW 1017,8 5 0,0
17.10.2018 09:00:00 10,5 10,3 19 10 27 15 S 1017,7 6 0,0
17.10.2018 08:00:00 10,1 9,9 22 12 25 14 S 1017,5 8 0,0
17.10.2018 07:00:00 10,1 9,9 22 12 25 14 S 1017,6 3,3 0,0
17.10.2018 06:00:00 9,7 9,6 14 8 17 9 SSE 1017,7 1,1 0,0
17.10.2018 05:00:00 9,6 9,5 9 5 12 7 SE 1018,1 0,2 0,0
17.10.2018 04:00:00 9,6 9,5 8 4 17 9 SE 1018,4 0,2 0,0
17.10.2018 03:00:00 9,5 9,4 14 8 16 9 SSE 1018,8 0,1 0,0
17.10.2018 02:00:00 9,6 9,5 10 6 13 7 SE 1019,0 0,1 0,0
17.10.2018 01:00:00 9,4 9,3 9 5 14 8 ESE 1019,2 0,1 0,0

tt = Température de l'air
td = dewpoint
ff = Vitesse du vent
fx = gusts
dd = Direction du vent
ppp = reduced air pressure
vv = visibility
rr = Quantités de précipitations

stations d'obs. à proximité